15:56
Airports
History
Links
Donate
Help keep this website running!
PayPal
Bitcoin
Information on this page is community maintained and may be outdated or inaccurate and is intended for reference only or PC simulator navigating.
Always use approved charts for navigating.
CYMM
FORT MCMURRAY
FORT MCMURRAY (CYMM)
Fort McMurray, Alberta, Canada
(U)
Lat/Lng:56° 39' 9.5" N / 111° 13' 19.02" W
56.652639 / -111.22195
Elevation:1211'ft 369mMSL
ID / ICAO:CYMM
Runways:1
Longest:(07-25) 1,834.6m 6,019ft Asphalt
Distance To
Airport ID:
Airport Radio Frequencies
ATIS: 128.5
Nearby VORs <50NM
Nearby NDBs
METARUpdated 06-29-17 15:00 GMT
Altimeter: 29.94
Visibility: 9.0 statute miles
Wind: 2 knots (VRB°)
Temp: 15°c 59°f
Humidity: 72.0%

METAR: CYMM 291500Z AUTO VRB02KT 9SM SCT060 SCT120 15/10 A2994 RMK SLP149 DENSITY ALT 1500FT

(Powered by phpweather)
Runway 07 / 25
Dimensions:1834.6 x 45.7m 6019' x 150'ft
Surface:Asphalt
Edge Lights:High intensity
Runway 07 [A]Runway 25 [B]
Heading:089°TH 269°TH
Lat:
Lng:
56° 39' 9"N
111° 14' 13.02"W
56° 39' 10"N
111° 12' 25.02"W
ALS:ODALSSSALR
TDZ:Yes, lighted
User Notes and Comments
Google Map
Nearby Airports
4 Fort McMurray Mildred Lake 30.4 NM
ER4 NNW 334°
4 Conklin (Leismer) 66.5 NM
ET2 S 181°
4 Axe Lake 67.0 NM
CAX2 NE 50°
(U) La Loche 70.3 NM
CJL4 E 100°
4 Birch Mountain 75.9 NM
FM2 NNW 342°
4 Agnes Lake 76.2 NM
FD2 SW 220°
4 Grist Lake 91.1 NM
FY2 SSE 161°
VFR Chart
Flight Planning at SkyVector.com